Location: Burzi?i
(45.0869°N, 16.0577°E)
Time: 11:14:48
(UTC+00:00)

Cosmos 2315 Rocket - Pass Details

Date: 29 October 2020
Orbit: 967 x 1001 km, 82.9° (Epoch: 27 November)

Event Time Altitude Azimuth Distance (km) Brightness Sun altitude
Rises 17:16:43 0° 161° (SSE) 3,650 6.8 -16.2°
Reaches altitude 10° 17:19:22 10° 154° (SSE) 2,704 6.1 -16.7°
Maximum altitude 17:25:01 38° 88° (E) 1,429 4.4 -17.7°
Drops below altitude 10° 17:30:40 10° 23° (NNE) 2,717 6.1 -18.7°
Sets 17:33:20 0° 16° (NNE) 3,669 6.9 -19.2°
